Temp_Advection
nan nan nan nan nan nan nan nan nan nan nan nan nan nan nan nan nan nan nan nan nan nan nan nan nan nan nan nan nan nan nan nan nan nan nan nan nan nan nan nan nan nan nan nan nan
nan -0 -0 -0 -0 -0 -0 -0 -0 -0 -0 -0 -0 -0 -0 -0 -0 0 0 -0 -0 0 -0 -0 -0 -0 -0 0 -0 -0 -0 0 -0 -0 0 0 0 0 0 0 0 0 0 0 nan
nan -0 -0 -0 -0 -0 -0 -0 -0 -0 -0 -0 -0 -0 -0 0 0 0 0 -0 -0 0 0 -0 -0 -0 -0 -0 -0 0 0 -0 0 0 0 0 0 0 0 -0 0 1 0 0 nan
nan -0 -0 -0 -0 -0 -0 0 -0 -0 -0 -0 -0 -0 -0 -0 0 0 -0 -0 -0 -0 0 -0 -0 -0 -0 0 0 -0 0 0 0 0 0 0 0 0 -0 0 -0 0 0 -0 nan
nan -0 -0 -0 -0 -0 -0 -0 -0 -0 -0 -0 -0 -0 -1 -0 0 0 -0 -0 -0 -0 -0 -0 -0 -0 -0 0 0 -0 0 0 0 0 0 0 -0 0 0 1 0 0 0 0 nan
nan -0 0 -0 -0 -0 -0 -0 -0 -0 -0 -0 0 0 -0 -0 0 0 -0 -0 0 -0 -0 -0 -0 -0 -0 0 0 -0 0 0 0 0 0 0 0 0 -0 1 0 -0 0 0 nan
nan 0 0 -0 -0 -0 -0 -0 -0 -0 -0 0 0 -0 -0 -0 0 -0 -0 -0 -0 -0 -0 -0 -0 -0 -0 -0 0 -0 -0 -0 0 0 0 0 -0 -0 0 0 -0 -0 0 0 nan
nan 0 0 0 -0 -0 -0 -0 -0 -0 -0 0 0 -0 -0 0 0 0 -0 -0 -0 -0 0 0 -0 -0 0 0 -0 -0 -0 0 -0 0 -0 -0 -0 -0 0 0 -0 -0 0 0 nan
nan 0 0 0 -0 -0 -0 -0 -0 -0 -0 0 0 -0 -0 0 0 -0 0 0 0 0 0 0 -0 0 -0 -0 -0 -0 -0 -0 -0 0 -0 -0 -0 -0 0 0 -0 -0 0 0 nan
nan 0 0 0 0 0 -0 -0 -0 -0 -0 0 0 -0 -0 0 0 0 -0 -0 0 0 -0 0 -0 -0 -0 -0 -0 -0 0 0 1 -0 0 -0 -1 -0 0 0 0 0 0 0 nan
nan 0 0 -0 -0 0 0 -0 -0 0 -0 -0 0 0 0 0 0 0 0 -0 -0 -0 -0 -0 -0 -0 -0 0 -0 -0 -0 -0 0 -0 0 -0 -0 -0 0 0 0 0 0 0 nan
nan 0 -0 -0 0 0 0 -0 -0 0 -0 -0 0 0 0 -0 -0 0 0 -0 -0 -0 0 -0 -0 -0 0 0 0 -0 -0 -0 0 -0 -0 -0 0 -0 -0 0 0 0 0 -0 nan
nan 0 0 -0 -0 0 0 0 -0 -0 -0 -0 0 0 0 -0 -0 0 -0 -0 -0 -0 0 0 -0 -0 0 0 -0 -0 0 -0 -0 -0 0 0 0 0 -0 0 0 1 0 1 nan
nan 0 0 0 0 -0 -0 0 0 -0 -0 0 -0 0 0 -0 0 0 -0 -0 -0 -0 -0 0 -0 0 0 0 0 0 -0 -0 -0 -0 -0 0 0 -0 -0 -0 0 -0 -0 1 nan
nan -0 -0 0 0 0 -0 0 0 0 -0 -0 -0 0 -0 -0 0 -0 0 -0 -0 -0 0 -0 0 0 0 0 0 -0 -0 -0 -0 -0 -0 0 0 0 0 -0 -1 -1 0 0 nan
nan -0 -0 -0 -0 -0 -0 -0 0 0 -0 -0 -0 -0 0 -0 0 0 0 0 -0 -0 0 0 -0 -0 -0 0 0 -0 0 -0 -0 -0 -0 0 -0 0 -0 0 -0 -1 -0 -0 nan
nan -0 -0 -0 0 0 -0 0 -0 -0 -0 0 0 -0 -1 -0 0 0 -0 -0 0 0 0 0 -0 -0 -0 0 0 -0 -0 -0 -0 -0 0 -0 -0 -0 -0 0 0 0 -0 -0 nan
nan -0 -0 -0 0 0 0 -0 -0 -0 0 0 -0 -0 -0 -0 0 0 0 0 0 0 -0 -0 0 0 -0 -0 -0 -0 -0 -0 -0 -0 -0 -0 -0 -0 -0 0 -0 0 0 -0 nan
nan 0 -0 -0 0 0 0 -0 -0 -0 -0 0 0 -0 -0 0 0 -0 -0 0 -0 0 -0 -0 0 -0 -0 -0 -0 0 0 -0 -0 0 -0 -0 -0 -0 -0 -1 0 0 0 -0 nan
nan 0 -0 -0 0 0 0 -0 -0 -0 -0 -0 0 0 -0 -0 0 -0 0 -0 0 -0 0 0 -0 -0 -0 0 0 -0 0 -0 0 -0 -0 0 0 -0 -1 -1 -1 -0 0 -0 nan
nan 0 0 -0 -0 -0 -0 -0 -0 -0 -0 -0 -0 -0 0 0 0 -0 0 -0 0 -0 0 -0 -0 0 -0 -0 -0 -0 -0 -0 -0 -0 -0 -0 -1 -0 -0 -0 -0 -0 0 0 nan
nan 0 0 0 -0 -0 -0 -0 -1 -0 -0 -0 -0 -0 0 0 -0 -0 0 -0 0 -0 0 -0 -0 -0 0 -0 -0 -0 -0 -0 -0 -0 0 -0 0 -0 0 0 0 0 0 0 nan
nan 0 -0 0 0 -0 0 0 -0 -0 0 -0 0 0 -0 -0 -0 0 0 -0 0 0 -0 0 -0 -0 0 -0 -0 -0 0 0 0 -0 -0 -0 -0 0 0 0 0 0 0 0 nan
nan 0 0 -0 -0 -0 0 -0 0 0 -0 -0 -0 -0 -0 -0 0 0 0 0 0 0 0 0 -0 -0 -0 0 -0 0 0 0 -0 -0 0 0 -0 -0 -0 -0 -0 -0 0 0 nan
nan -0 -0 -0 0 0 0 -0 -0 0 0 -0 -0 -0 -0 0 0 0 0 0 -0 0 0 -0 -0 -0 -0 0 0 0 0 -0 0 -0 0 -0 -0 -0 -0 -0 0 0 -0 -0 nan
nan -0 -0 -0 -0 -0 -0 -0 0 -0 -0 -0 0 -0 0 -0 0 -0 0 0 -0 -0 -0 0 -0 -0 -0 0 0 -0 -0 0 -0 -0 -0 0 0 0 -0 -0 0 0 -0 -0 nan
nan nan nan nan nan nan nan nan nan nan nan nan nan nan nan nan nan nan nan nan nan nan nan nan nan nan nan nan nan nan nan nan nan nan nan nan nan nan nan nan nan nan nan nan nan
Wind_Speed
12 13 14 14 14 14 14 15 16 17 17 17 16 15 16 15 13 7 4 6 8 9 7 8 5 5 2 2 2 2 5 8 12 5 3 6 9 4 2 6 5 5 6 8 14
12 13 13 14 14 14 14 15 16 18 18 18 17 18 18 17 13 3 5 9 9 7 6 5 4 4 5 3 2 5 6 7 5 1 2 7 8 6 6 9 10 9 8 9 16
13 13 13 13 14 14 15 15 16 17 18 19 19 19 19 18 8 2 7 9 7 6 6 4 3 3 6 4 4 3 5 5 2 2 1 5 7 5 6 8 13 8 8 12 15
16 15 15 14 14 14 15 15 17 18 19 19 19 19 17 11 7 4 8 8 6 6 4 4 2 4 4 5 2 5 4 4 2 4 4 6 2 4 13 6 3 2 6 11 15
18 18 17 15 15 15 15 16 17 18 19 20 19 19 15 7 6 10 8 9 6 3 3 2 2 3 5 4 5 8 4 4 4 5 8 4 8 9 9 9 6 4 7 11 15
21 21 18 16 16 16 16 17 18 19 21 23 21 16 8 10 9 8 8 7 4 2 3 2 1 2 3 4 5 3 6 9 7 9 8 7 10 1 4 10 9 7 9 12 17
26 23 20 20 18 17 17 19 20 20 23 23 19 12 9 8 7 6 6 3 3 2 5 3 3 4 0 4 3 5 8 11 12 11 6 3 10 12 8 9 7 9 12 15 19
21 21 20 20 21 20 18 20 22 22 23 20 14 6 7 9 7 4 3 4 6 5 4 5 3 2 3 1 4 6 5 6 6 7 4 3 6 2 7 8 9 10 15 19 22
16 18 21 20 22 21 20 20 23 23 19 14 8 4 4 5 3 5 6 6 10 6 5 6 5 5 3 4 7 8 9 7 5 6 2 8 7 3 7 8 11 12 17 19 28
22 22 25 24 23 24 23 21 22 17 10 6 2 5 3 3 5 10 8 8 4 6 4 3 2 2 2 4 4 7 6 4 7 4 5 10 16 14 11 12 13 16 16 23 36
20 22 24 24 24 22 22 14 9 6 5 7 18 12 9 5 11 4 4 6 5 4 7 5 4 5 5 3 6 7 9 11 8 3 4 10 13 10 10 10 11 11 18 24 36
19 20 20 20 19 17 16 4 7 8 10 13 11 9 7 5 4 3 4 3 5 8 1 5 6 4 1 3 4 6 9 9 4 1 3 10 14 6 7 6 3 10 13 24 36
18 16 16 15 9 12 8 10 12 9 7 6 5 4 3 2 4 2 3 2 7 9 8 9 4 1 4 5 6 8 8 7 5 8 8 10 8 2 2 3 6 11 20 24 26
16 11 12 7 7 8 9 9 8 4 3 3 3 2 1 2 3 2 2 2 4 4 4 7 5 3 5 6 3 6 1 2 6 6 3 2 4 5 4 2 8 19 23 26 31
14 7 4 6 2 2 2 3 1 1 5 4 1 2 2 4 4 3 2 3 5 3 3 3 3 4 7 1 2 3 3 5 5 6 8 7 4 5 3 7 15 17 28 29 32
11 5 3 3 1 5 2 3 2 1 5 3 5 4 5 5 4 2 2 2 3 3 5 8 1 2 2 0 3 4 4 4 3 3 4 4 2 4 4 5 13 19 26 29 33
11 6 4 1 6 5 4 4 1 4 1 3 4 1 7 5 3 3 1 2 4 1 3 5 6 2 2 5 2 2 4 2 3 3 1 3 5 4 3 7 5 10 23 28 31
10 11 7 3 6 6 6 2 4 1 4 1 2 3 6 2 3 3 4 4 5 2 2 4 4 1 1 2 2 2 2 2 4 3 4 5 4 4 5 3 4 8 18 24 29
8 5 5 2 5 7 5 1 3 4 3 3 3 3 4 3 3 4 5 3 1 4 3 2 2 4 5 2 3 2 2 2 3 2 3 2 4 5 1 10 14 16 22 28 30
5 3 1 1 2 4 2 3 6 4 5 2 5 1 2 1 3 2 3 3 2 1 1 2 4 1 3 0 5 2 3 2 2 3 5 4 2 3 12 14 14 15 21 29 32
4 2 3 1 1 1 2 5 8 4 4 3 4 5 6 4 2 4 4 4 1 3 2 1 1 3 2 4 1 2 2 1 2 2 3 5 4 1 5 8 11 12 19 25 31
2 1 3 5 1 2 3 5 6 4 3 1 2 3 3 3 3 3 4 2 1 3 2 2 2 4 1 3 2 2 1 2 3 2 1 3 2 2 3 5 8 12 18 23 27
2 0 3 5 2 3 3 4 3 3 2 1 3 3 1 2 4 4 2 1 1 2 1 1 2 3 3 2 2 4 4 2 2 0 4 3 2 1 2 3 7 11 17 20 25
2 1 1 4 3 4 2 3 2 1 3 3 3 2 2 4 5 3 3 1 2 0 2 2 2 5 4 2 2 3 4 7 4 3 3 5 5 3 6 6 10 12 16 18 22
4 3 3 2 4 4 2 1 3 3 2 2 3 5 4 4 3 5 2 2 5 5 1 1 3 2 9 6 4 4 5 9 7 5 4 3 3 6 3 4 7 11 13 17 23
6 3 2 2 2 4 4 3 3 1 2 3 5 5 4 5 5 3 3 4 3 6 2 1 1 2 4 2 6 8 10 11 9 8 12 10 9 5 2 0 4 9 13 15 20
11 11 4 5 3 3 4 4 3 3 6 7 3 4 7 6 2 1 3 3 2 3 6 3 2 2 2 1 5 8 5 11 6 7 4 4 4 6 3 2 3 7 11 13 18
Wind_Direction
2 3 0 357 356 354 352 353 354 354 352 351 350 347 343 339 332 331 279 285 313 321 329 325 306 292 295 243 202 231 250 255 256 249 111 153 194 179 184 238 222 237 275 303 324
346 344 348 349 349 349 349 351 353 352 351 348 344 339 336 333 335 283 269 319 323 330 340 317 281 278 235 229 218 236 254 287 9 284 248 181 221 193 221 212 233 244 262 301 320
330 334 335 341 341 342 344 345 345 344 342 337 336 335 334 333 312 172 309 330 333 338 316 299 290 274 243 234 195 191 257 6 230 241 247 200 236 211 236 257 242 268 286 306 321
316 319 325 327 333 330 332 334 337 338 336 332 332 334 332 337 319 275 318 335 346 4 323 295 281 255 269 248 210 270 245 266 294 229 212 196 253 244 238 256 123 191 294 313 321
303 307 315 319 322 329 324 326 330 330 333 332 325 328 334 288 268 287 317 334 346 350 345 307 324 294 265 288 277 249 278 257 258 238 246 249 227 255 254 236 208 263 290 316 312
294 296 302 307 311 318 323 324 323 322 320 320 321 323 318 281 273 289 315 329 316 320 321 352 306 301 283 278 264 345 272 258 241 245 253 246 259 271 251 208 226 268 298 303 315
288 284 292 300 301 309 317 317 318 318 315 317 316 321 286 280 279 290 313 311 307 307 286 316 300 261 272 291 266 279 281 246 234 233 252 288 253 229 251 203 239 268 288 307 316
290 283 287 296 304 302 311 312 313 313 315 312 312 320 283 278 288 305 329 297 319 297 265 266 289 263 247 231 238 251 242 261 115 193 142 191 277 158 193 214 247 279 302 311 320
285 289 295 295 298 296 307 308 312 309 309 309 318 269 283 312 307 285 289 303 291 284 269 278 292 254 201 224 270 208 265 220 172 204 165 217 289 100 208 237 270 291 303 318 326
286 285 293 296 287 296 308 304 311 304 303 315 309 276 247 311 276 294 299 311 296 278 256 244 264 276 259 216 243 277 265 257 266 124 229 247 259 272 234 236 266 283 313 327 327
295 291 290 285 285 291 297 306 295 265 259 266 289 271 296 292 306 293 306 301 266 244 250 195 251 238 253 304 320 296 277 276 278 101 284 257 276 283 268 277 263 296 323 327 322
297 292 295 297 288 273 278 274 284 291 294 262 262 262 260 278 271 249 341 279 233 271 255 212 261 50 267 245 256 262 278 289 296 126 265 292 287 310 285 250 249 282 331 339 321
313 301 302 309 316 257 280 281 284 280 267 245 234 253 244 268 274 238 337 279 270 277 259 277 36 70 266 252 262 268 265 295 292 322 269 289 256 202 191 207 293 339 343 327 323
327 309 311 318 299 292 283 297 293 336 287 174 175 191 256 264 242 239 341 274 228 296 319 283 81 258 253 265 283 284 69 298 311 319 314 1 292 183 182 249 347 352 341 329 332
338 330 329 244 301 313 344 103 199 44 277 36 106 269 260 255 337 180 261 251 268 286 262 46 234 246 256 302 253 334 326 302 289 277 316 169 250 113 170 332 344 350 334 335 330
344 331 19 2 80 95 38 59 85 109 236 11 352 343 294 208 226 251 224 252 296 267 231 282 65 281 340 208 261 328 305 234 270 255 245 117 282 133 35 311 315 335 328 333 331
353 344 6 101 159 127 95 41 258 241 113 211 206 250 259 270 259 248 64 241 262 240 200 188 206 139 301 252 176 290 300 273 220 196 316 174 265 33 32 344 315 307 320 332 334
6 17 9 53 169 169 138 219 254 307 243 25 267 240 257 358 221 264 269 256 209 239 288 282 214 229 42 17 340 4 312 302 301 330 350 182 244 107 47 338 22 345 331 337 338
12 1 18 34 184 172 104 228 277 310 1 335 262 256 221 191 273 287 235 300 35 181 220 299 170 117 54 40 324 98 249 22 289 199 262 160 133 138 356 11 353 350 342 339 340
342 348 0 103 93 143 78 251 263 7 332 301 280 194 285 356 291 260 278 85 169 137 129 53 278 165 127 269 60 317 110 241 169 305 292 155 230 45 347 346 345 346 344 334 344
296 268 315 44 210 352 264 265 308 41 353 319 327 283 251 265 194 275 284 125 230 140 170 134 246 117 174 202 19 161 192 172 293 299 305 313 92 76 337 336 332 332 337 332 345
290 258 293 129 134 49 239 313 341 339 23 2 323 279 253 218 242 249 270 27 157 140 166 99 314 263 7 89 33 285 283 260 258 120 223 294 319 96 28 334 324 333 334 343 351
255 201 331 155 214 216 239 269 267 295 304 339 276 236 281 272 298 231 251 30 190 197 35 119 207 271 209 180 188 230 176 144 109 255 225 284 55 215 324 13 359 345 341 350 353
226 278 356 182 230 286 280 274 260 234 271 268 293 268 279 252 219 291 237 236 212 170 69 193 275 258 320 350 85 191 195 195 215 241 141 242 324 33 5 9 348 348 349 352 358
214 239 198 203 221 207 193 324 277 289 239 234 246 237 260 284 266 234 176 185 218 192 213 267 256 234 271 270 221 252 205 183 199 233 248 38 294 334 359 356 319 336 352 359 5
186 184 220 241 158 164 193 247 257 118 226 270 235 292 257 250 243 314 202 198 208 167 160 75 257 293 267 198 250 262 243 208 215 258 258 269 282 171 140 210 328 355 360 3 4
212 219 219 184 187 168 208 219 224 166 244 245 275 307 259 278 207 65 82 47 299 181 182 176 250 273 272 341 302 268 222 187 179 213 205 206 89 149 148 98 13 356 4 4 5
Height
1519 1517 1515 1512 1509 1507 1505 1503 1500 1498 1495 1492 1490 1487 1484 1481 1479 1477 1479 1477 1474 1472 1470 1470 1470 1471 1469 1470 1469 1469 1463 1451 1444 1449 1448 1461 1462 1466 1466 1467 1471 1472 1472 1473 1472
1519 1517 1514 1511 1509 1506 1504 1502 1499 1497 1495 1492 1489 1487 1483 1480 1477 1478 1476 1474 1472 1470 1470 1470 1469 1469 1468 1468 1469 1467 1457 1444 1453 1454 1455 1460 1462 1463 1467 1464 1467 1470 1471 1471 1470
1519 1516 1513 1510 1507 1505 1503 1501 1498 1496 1493 1491 1488 1486 1483 1479 1478 1477 1475 1472 1471 1470 1470 1469 1468 1468 1466 1467 1465 1462 1456 1456 1458 1461 1460 1460 1464 1465 1464 1462 1463 1465 1469 1469 1468
1517 1514 1511 1508 1506 1504 1502 1499 1497 1494 1491 1488 1486 1484 1481 1479 1477 1475 1474 1472 1470 1469 1470 1470 1468 1466 1465 1463 1464 1464 1458 1460 1461 1463 1462 1460 1463 1465 1464 1463 1464 1465 1467 1467 1466
1514 1512 1510 1507 1504 1503 1500 1498 1496 1492 1489 1486 1483 1481 1480 1479 1476 1473 1473 1472 1469 1469 1470 1469 1467 1466 1463 1464 1464 1461 1459 1462 1463 1464 1464 1462 1461 1463 1461 1463 1464 1464 1466 1464 1465
1511 1510 1507 1505 1503 1501 1499 1497 1493 1490 1487 1484 1481 1480 1479 1478 1472 1472 1471 1471 1470 1470 1470 1469 1468 1467 1465 1464 1464 1462 1462 1461 1462 1461 1462 1461 1459 1463 1458 1460 1463 1463 1463 1464 1461
1508 1506 1505 1503 1500 1498 1497 1495 1492 1488 1485 1482 1480 1478 1477 1475 1470 1470 1469 1469 1469 1469 1471 1468 1468 1467 1465 1463 1464 1463 1462 1455 1456 1459 1459 1461 1457 1455 1457 1460 1460 1461 1461 1460 1458
1504 1502 1501 1500 1497 1496 1494 1492 1488 1486 1482 1480 1478 1478 1475 1473 1470 1469 1470 1471 1468 1467 1468 1467 1467 1467 1465 1464 1463 1461 1460 1450 1455 1459 1460 1462 1443 1451 1456 1458 1458 1458 1458 1456 1453
1499 1498 1498 1496 1495 1493 1491 1489 1486 1482 1479 1477 1476 1477 1473 1471 1471 1469 1468 1469 1468 1466 1466 1466 1467 1466 1465 1460 1456 1451 1442 1440 1447 1456 1456 1460 1447 1453 1456 1457 1456 1456 1456 1453 1447
1496 1494 1494 1493 1491 1489 1488 1487 1483 1480 1477 1476 1476 1479 1474 1472 1470 1468 1467 1466 1467 1467 1466 1466 1466 1465 1462 1458 1453 1439 1444 1441 1447 1453 1456 1454 1449 1448 1450 1453 1454 1456 1453 1449 1443
1491 1489 1488 1487 1486 1485 1486 1484 1484 1480 1477 1475 1474 1472 1471 1470 1467 1467 1466 1466 1466 1465 1459 1463 1461 1459 1448 1452 1452 1454 1451 1448 1445 1452 1457 1451 1447 1446 1448 1450 1452 1451 1451 1447 1441
1487 1485 1483 1481 1480 1481 1483 1482 1483 1482 1474 1469 1469 1468 1467 1467 1467 1465 1464 1466 1463 1455 1457 1456 1449 1452 1457 1457 1456 1455 1452 1446 1447 1455 1458 1447 1444 1445 1448 1449 1451 1451 1447 1444 1439
1483 1480 1479 1478 1477 1478 1478 1480 1479 1479 1477 1465 1466 1467 1467 1468 1465 1464 1465 1462 1459 1454 1452 1451 1451 1459 1459 1457 1456 1451 1452 1451 1453 1451 1448 1450 1436 1448 1448 1448 1446 1445 1446 1444 1439
1479 1478 1477 1476 1479 1477 1477 1477 1477 1478 1476 1465 1466 1467 1467 1466 1465 1465 1463 1465 1458 1453 1453 1452 1456 1458 1458 1457 1459 1455 1457 1459 1458 1456 1443 1448 1432 1439 1442 1444 1438 1444 1445 1440 1434
1480 1477 1475 1474 1475 1476 1478 1477 1477 1478 1471 1467 1467 1466 1466 1467 1465 1464 1463 1464 1456 1452 1457 1452 1455 1457 1457 1456 1460 1455 1461 1461 1460 1455 1455 1445 1451 1433 1436 1439 1439 1446 1443 1438 1432
1480 1479 1475 1476 1476 1477 1477 1476 1478 1480 1462 1466 1469 1467 1467 1464 1463 1464 1462 1463 1462 1457 1454 1454 1460 1460 1459 1461 1461 1462 1460 1458 1459 1453 1448 1450 1448 1420 1440 1449 1447 1449 1443 1437 1429
1480 1478 1476 1473 1476 1476 1477 1479 1480 1471 1473 1469 1466 1470 1469 1460 1459 1460 1464 1460 1460 1457 1455 1453 1454 1460 1463 1458 1461 1459 1455 1441 1438 1441 1423 1451 1445 1436 1443 1447 1453 1451 1443 1437 1429
1480 1478 1478 1474 1476 1476 1477 1480 1477 1462 1462 1467 1467 1463 1465 1460 1458 1457 1456 1453 1461 1460 1455 1444 1442 1456 1462 1462 1460 1459 1460 1449 1433 1419 1419 1452 1436 1433 1444 1447 1449 1447 1445 1439 1428
1481 1481 1480 1477 1477 1478 1478 1482 1471 1463 1466 1465 1462 1461 1456 1460 1465 1459 1450 1450 1458 1462 1459 1452 1442 1462 1464 1464 1466 1459 1457 1467 1458 1461 1444 1413 1427 1441 1439 1443 1446 1445 1441 1435 1427
1483 1481 1480 1478 1479 1479 1480 1479 1470 1470 1469 1466 1464 1462 1461 1457 1461 1459 1449 1458 1462 1463 1464 1463 1455 1458 1464 1466 1467 1464 1467 1458 1458 1437 1421 1412 1419 1417 1442 1447 1447 1444 1442 1435 1427
1483 1480 1480 1480 1479 1481 1480 1475 1470 1474 1473 1471 1468 1463 1462 1461 1465 1457 1455 1460 1463 1463 1464 1465 1466 1459 1462 1460 1453 1464 1462 1465 1462 1459 1434 1417 1417 1450 1453 1454 1451 1448 1445 1439 1428
1481 1480 1480 1479 1482 1484 1482 1478 1479 1473 1474 1474 1475 1472 1469 1467 1462 1462 1456 1460 1464 1463 1464 1463 1465 1453 1448 1464 1466 1463 1458 1457 1447 1451 1458 1456 1429 1452 1454 1454 1453 1450 1447 1441 1433
1481 1479 1480 1479 1481 1482 1480 1480 1479 1475 1474 1475 1474 1474 1473 1467 1463 1458 1459 1466 1466 1464 1466 1466 1460 1447 1450 1465 1467 1461 1460 1465 1468 1466 1448 1440 1424 1449 1449 1452 1452 1451 1448 1443 1435
1481 1479 1481 1481 1481 1480 1480 1477 1476 1476 1476 1476 1474 1474 1472 1466 1465 1462 1461 1467 1467 1468 1468 1468 1464 1457 1437 1448 1455 1460 1463 1464 1461 1450 1446 1438 1438 1442 1447 1452 1451 1451 1449 1445 1438
1479 1477 1476 1479 1479 1480 1481 1479 1475 1475 1477 1476 1472 1472 1469 1465 1466 1463 1463 1468 1468 1468 1469 1468 1461 1459 1451 1449 1456 1454 1457 1466 1468 1451 1449 1451 1456 1447 1453 1456 1454 1452 1451 1446 1441
1476 1476 1477 1476 1477 1479 1479 1476 1474 1474 1476 1471 1473 1468 1469 1468 1463 1459 1463 1464 1461 1467 1469 1471 1458 1458 1450 1451 1454 1454 1449 1453 1464 1457 1452 1451 1451 1450 1455 1456 1454 1453 1452 1448 1444
1470 1472 1474 1474 1476 1476 1474 1472 1472 1474 1471 1472 1472 1471 1467 1466 1465 1466 1465 1465 1465 1466 1468 1470 1466 1458 1436 1450 1455 1437 1441 1445 1451 1453 1444 1443 1442 1450 1453 1454 1455 1453 1452 1450 1447